Temp
-7 -7 -6 -5 -5 -5 -4 -4 -3 -2 -2 -2 -3 -3 -4 -5 -5 -6 -6 -6 -6 -6 -6 -6 -6 -7 -6 -6 -5 -6 -6 -6 -6 -8 -8 -8 -7 -8 -8 -8 -7 -7 -7 -8
-7 -7 -6 -6 -5 -5 -5 -4 -3 -3 -2 -2 -3 -4 -3 -4 -4 -5 -6 -5 -6 -6 -6 -6 -6 -7 -6 -6 -6 -6 -6 -6 -7 -7 -8 -8 -8 -8 -8 -8 -8 -7 -7 -7
-8 -7 -7 -6 -5 -5 -5 -5 -4 -3 -3 -3 -3 -3 -4 -4 -3 -4 -5 -5 -6 -6 -6 -6 -6 -6 -7 -6 -6 -7 -6 -6 -7 -7 -8 -8 -8 -8 -8 -8 -8 -8 -8 -8
-9 -8 -7 -5 -5 -6 -6 -5 -5 -4 -4 -3 -4 -4 -4 -4 -4 -4 -4 -4 -4 -5 -5 -6 -6 -7 -7 -7 -7 -7 -7 -7 -7 -8 -7 -8 -8 -8 -8 -8 -8 -8 -8 -8
-10 -8 -7 -6 -6 -6 -6 -5 -5 -4 -4 -4 -4 -4 -4 -4 -4 -4 -4 -4 -4 -4 -4 -5 -5 -6 -7 -7 -7 -7 -6 -7 -6 -8 -8 -7 -7 -8 -8 -8 -8 -8 -9 -9
-10 -8 -7 -6 -7 -7 -6 -5 -5 -5 -5 -4 -4 -3 -4 -5 -5 -4 -4 -4 -4 -4 -4 -4 -4 -5 -5 -6 -7 -7 -7 -7 -7 -7 -8 -8 -8 -8 -8 -8 -8 -8 -8 -9
-11 -9 -7 -7 -7 -7 -6 -5 -6 -6 -6 -5 -4 -4 -5 -5 -5 -5 -5 -4 -5 -5 -5 -5 -4 -4 -5 -5 -6 -7 -7 -7 -7 -7 -7 -8 -8 -8 -8 -8 -8 -8 -8 -8
-11 -9 -7 -7 -8 -7 -7 -6 -6 -6 -6 -6 -5 -5 -5 -5 -5 -5 -5 -5 -5 -5 -5 -5 -5 -5 -5 -5 -6 -7 -7 -7 -7 -7 -7 -7 -7 -7 -8 -8 -8 -8 -9 -9
-13 -9 -8 -8 -8 -8 -7 -7 -7 -7 -6 -7 -7 -6 -6 -6 -6 -6 -6 -5 -6 -5 -5 -5 -5 -5 -5 -5 -6 -7 -8 -8 -8 -8 -8 -8 -7 -7 -8 -8 -8 -9 -9 -9
-13 -11 -8 -7 -7 -7 -7 -7 -8 -7 -8 -8 -8 -8 -7 -7 -6 -6 -6 -6 -6 -6 -6 -6 -6 -6 -6 -6 -5 -6 -7 -7 -8 -8 -8 -8 -8 -8 -8 -8 -8 -7 -7 -9
-13 -11 -11 -10 -9 -8 -8 -8 -8 -8 -8 -9 -8 -8 -8 -8 -8 -7 -6 -7 -7 -7 -7 -7 -6 -6 -7 -7 -7 -7 -8 -8 -8 -8 -8 -8 -8 -8 -8 -8 -8 -9 -7 -8
-13 -13 -12 -11 -11 -10 -9 -10 -10 -9 -9 -9 -10 -10 -9 -8 -8 -8 -8 -7 -7 -7 -7 -7 -7 -7 -7 -7 -7 -7 -7 -7 -8 -8 -8 -8 -8 -8 -9 -8 -8 -9 -9 -9
-17 -17 -13 -12 -11 -10 -10 -11 -11 -10 -9 -10 -10 -10 -10 -10 -9 -8 -8 -8 -8 -8 -7 -7 -7 -7 -7 -7 -7 -7 -7 -7 -7 -7 -7 -7 -7 -7 -7 -7 -8 -9 -9 -9
-18 -18 -15 -13 -11 -10 -11 -11 -11 -11 -11 -11 -11 -11 -10 -10 -10 -10 -9 -9 -8 -8 -8 -7 -8 -7 -7 -7 -7 -8 -7 -6 -6 -6 -6 -6 -6 -7 -7 -7 -7 -8 -8 -9
-19 -19 -18 -17 -15 -12 -12 -11 -12 -11 -12 -11 -11 -11 -11 -10 -11 -10 -10 -10 -10 -9 -10 -9 -9 -8 -7 -8 -7 -7 -7 -6 -6 -6 -6 -6 -6 -6 -7 -7 -7 -7 -8 -8
-18 -18 -16 -16 -15 -14 -13 -13 -12 -12 -12 -11 -10 -10 -9 -10 -10 -10 -11 -11 -10 -10 -9 -9 -9 -9 -8 -8 -8 -7 -7 -6 -6 -6 -6 -7 -6 -6 -6 -6 -6 -6 -8 -8
-16 -15 -15 -14 -14 -15 -14 -14 -13 -12 -12 -11 -11 -11 -11 -10 -10 -11 -11 -11 -11 -10 -9 -10 -9 -8 -8 -8 -8 -7 -7 -7 -7 -7 -7 -6 -6 -6 -5 -8 -7 -7 -5 -9
-14 -14 -14 -13 -12 -14 -13 -13 -13 -12 -12 -11 -11 -12 -11 -10 -11 -11 -11 -11 -11 -11 -10 -9 -9 -8 -8 -8 -8 -8 -8 -7 -8 -8 -8 -7 -7 -5 -7 -8 -8 -9 -10 -9
-14 -14 -14 -14 -14 -13 -13 -13 -13 -12 -13 -11 -12 -12 -11 -10 -11 -12 -12 -11 -11 -10 -10 -9 -9 -9 -9 -9 -9 -9 -9 -8 -8 -9 -8 -8 -7 -7 -8 -9 -10 -9 -10 -10
-14 -14 -14 -14 -13 -13 -13 -13 -13 -13 -13 -12 -12 -12 -12 -12 -12 -13 -12 -10 -10 -10 -10 -10 -10 -9 -9 -10 -10 -10 -9 -9 -9 -9 -9 -8 -8 -8 -8 -9 -10 -10 -10 -10
-15 -14 -14 -14 -14 -14 -14 -14 -14 -13 -14 -13 -13 -13 -13 -13 -12 -11 -10 -10 -10 -10 -10 -11 -10 -10 -10 -10 -11 -10 -10 -10 -10 -10 -10 -9 -8 -9 -10 -10 -10 -10 -10 -11
-16 -15 -15 -15 -15 -14 -14 -14 -14 -14 -14 -14 -13 -14 -13 -12 -11 -11 -10 -10 -10 -10 -11 -10 -10 -12 -12 -12 -12 -11 -10 -10 -10 -11 -11 -10 -10 -10 -11 -11 -10 -10 -11 -10
-16 -17 -17 -16 -16 -15 -15 -15 -15 -15 -13 -14 -14 -14 -14 -13 -13 -12 -12 -12 -11 -12 -12 -12 -12 -12 -12 -13 -12 -12 -11 -11 -11 -11 -11 -11 -11 -11 -11 -11 -11 -11 -11 -11
-17 -16 -16 -17 -16 -16 -16 -15 -15 -14 -15 -16 -16 -15 -15 -14 -14 -13 -13 -13 -13 -13 -13 -13 -12 -12 -12 -13 -12 -12 -12 -12 -12 -12 -12 -12 -12 -12 -12 -12 -12 -11 -11 -11
-18 -18 -18 -18 -18 -18 -17 -17 -17 -17 -17 -17 -17 -16 -16 -15 -14 -15 -15 -16 -16 -16 -14 -15 -15 -14 -14 -14 -13 -13 -13 -13 -13 -13 -12 -12 -13 -12 -12 -12 -13 -12 -12 -12
-18 -17 -17 -17 -17 -17 -17 -17 -17 -17 -17 -17 -17 -17 -17 -17 -17 -16 -16 -16 -15 -16 -16 -16 -16 -16 -15 -15 -15 -15 -14 -14 -14 -14 -14 -14 -14 -14 -14 -14 -14 -14 -13 -13
-18 -18 -18 -18 -18 -18 -17 -17 -17 -17 -17 -17 -17 -17 -17 -16 -16 -16 -17 -17 -17 -17 -17 -17 -17 -17 -17 -16 -16 -15 -15 -15 -15 -15 -15 -15 -15 -15 -15 -15 -15 -14 -14 -14
Height
5727 5734 5742 5749 5755 5759 5767 5778 5778 5801 5803 5810 5816 5817 5822 5825 5831 5834 5839 5844 5850 5855 5858 5861 5865 5868 5872 5874 5875 5876 5879 5880 5881 5883 5884 5885 5886 5887 5887 5887 5888 5887 5887 5888
5709 5719 5728 5736 5745 5750 5756 5765 5770 5788 5792 5804 5810 5811 5814 5818 5821 5824 5830 5836 5841 5846 5850 5854 5858 5862 5865 5868 5870 5871 5873 5876 5877 5878 5879 5881 5882 5883 5883 5884 5883 5883 5883 5883
5692 5702 5712 5722 5736 5743 5748 5754 5763 5774 5786 5796 5802 5806 5810 5811 5815 5819 5822 5826 5831 5835 5839 5845 5849 5855 5857 5861 5863 5864 5867 5869 5871 5872 5874 5876 5876 5876 5878 5879 5877 5878 5878 5878
5674 5686 5692 5715 5721 5726 5733 5742 5749 5763 5774 5782 5790 5798 5801 5805 5807 5810 5816 5820 5824 5828 5832 5838 5841 5845 5850 5852 5855 5858 5861 5862 5864 5865 5868 5869 5870 5871 5873 5873 5873 5872 5873 5873
5655 5668 5682 5696 5707 5714 5722 5733 5739 5750 5763 5771 5778 5785 5792 5797 5800 5803 5807 5811 5815 5819 5823 5828 5831 5837 5841 5844 5847 5850 5853 5856 5858 5858 5859 5861 5863 5865 5866 5866 5865 5866 5866 5867
5640 5652 5660 5685 5693 5702 5711 5721 5732 5739 5751 5761 5768 5772 5787 5788 5789 5795 5800 5803 5807 5812 5817 5821 5824 5827 5831 5835 5838 5842 5846 5849 5851 5851 5851 5853 5856 5857 5857 5858 5858 5857 5859 5859
5623 5634 5643 5662 5677 5686 5698 5714 5720 5727 5736 5749 5757 5765 5773 5778 5781 5785 5790 5795 5799 5803 5808 5812 5816 5820 5823 5825 5828 5834 5834 5835 5838 5841 5842 5843 5842 5841 5839 5845 5847 5849 5850 5852
5607 5617 5627 5651 5662 5674 5686 5697 5707 5716 5726 5734 5744 5753 5758 5765 5773 5777 5780 5785 5790 5794 5798 5801 5805 5809 5813 5817 5819 5821 5824 5827 5830 5831 5832 5833 5833 5829 5830 5825 5831 5833 5832 5840
5591 5604 5619 5634 5646 5660 5669 5682 5695 5705 5716 5725 5732 5741 5747 5755 5760 5766 5773 5777 5780 5784 5788 5791 5796 5800 5802 5805 5809 5811 5814 5817 5819 5821 5822 5822 5823 5822 5818 5816 5813 5810 5818 5824
5572 5590 5607 5621 5632 5642 5654 5668 5680 5691 5701 5712 5722 5728 5739 5745 5752 5757 5760 5768 5771 5774 5777 5781 5785 5789 5792 5796 5798 5800 5803 5805 5807 5809 5810 5810 5810 5808 5809 5805 5808 5811 5808 5807
5557 5574 5592 5606 5618 5630 5643 5658 5669 5679 5690 5700 5710 5718 5725 5733 5740 5747 5752 5754 5760 5766 5769 5772 5775 5778 5781 5785 5788 5790 5792 5794 5796 5796 5797 5796 5797 5796 5796 5797 5797 5793 5792 5795
5553 5564 5565 5590 5601 5614 5629 5649 5659 5670 5681 5690 5698 5705 5713 5720 5728 5735 5741 5746 5750 5753 5761 5765 5768 5770 5772 5774 5777 5779 5780 5781 5781 5781 5780 5780 5781 5783 5782 5780 5780 5779 5779 5779
5532 5535 5549 5568 5583 5601 5619 5637 5649 5663 5674 5682 5690 5695 5701 5708 5714 5721 5727 5733 5739 5745 5750 5755 5758 5760 5763 5764 5765 5766 5766 5766 5765 5764 5765 5763 5762 5761 5762 5763 5762 5762 5765 5765
5517 5523 5536 5553 5574 5592 5609 5624 5637 5654 5664 5673 5681 5685 5693 5699 5704 5711 5718 5724 5729 5734 5738 5741 5744 5746 5748 5750 5751 5751 5752 5753 5752 5751 5747 5743 5742 5741 5742 5741 5742 5741 5744 5745
5508 5521 5532 5548 5565 5583 5602 5618 5629 5642 5654 5664 5670 5675 5681 5688 5694 5701 5708 5713 5718 5722 5723 5726 5728 5732 5735 5738 5738 5738 5738 5738 5737 5734 5731 5725 5723 5721 5720 5717 5716 5718 5721 5723
5521 5534 5547 5560 5571 5584 5597 5612 5620 5629 5641 5652 5660 5668 5673 5678 5683 5691 5696 5699 5703 5707 5712 5714 5716 5718 5721 5722 5722 5723 5723 5723 5721 5716 5711 5707 5707 5706 5702 5696 5687 5685 5680 5692
5537 5547 5553 5562 5567 5583 5592 5604 5613 5623 5632 5643 5652 5659 5664 5669 5672 5676 5675 5685 5691 5696 5700 5703 5705 5705 5705 5705 5705 5706 5706 5706 5704 5700 5697 5695 5695 5690 5680 5676 5662 5661 5635 5649
5549 5555 5565 5571 5577 5588 5596 5604 5609 5618 5626 5636 5642 5649 5654 5656 5658 5664 5659 5673 5680 5685 5688 5690 5691 5691 5690 5689 5689 5689 5689 5691 5689 5688 5685 5682 5681 5675 5665 5661 5655 5648 5655 5658
5564 5571 5577 5582 5585 5592 5598 5601 5606 5613 5620 5625 5630 5637 5642 5643 5650 5652 5656 5660 5667 5672 5672 5675 5676 5676 5675 5674 5674 5677 5677 5677 5677 5676 5673 5675 5671 5664 5660 5659 5656 5658 5661 5659
5576 5582 5584 5585 5587 5591 5593 5595 5599 5607 5613 5617 5621 5625 5629 5634 5638 5643 5647 5653 5654 5657 5658 5660 5662 5662 5661 5661 5663 5664 5665 5665 5666 5666 5666 5664 5662 5660 5661 5660 5659 5656 5656 5659
5583 5587 5587 5589 5590 5591 5592 5593 5596 5601 5604 5609 5616 5621 5626 5629 5633 5636 5639 5640 5641 5643 5646 5648 5649 5647 5647 5648 5650 5652 5655 5653 5653 5653 5654 5656 5656 5651 5651 5656 5658 5657 5656 5656
5590 5589 5589 5590 5590 5590 5591 5593 5596 5600 5604 5606 5610 5614 5617 5620 5623 5625 5625 5626 5628 5630 5631 5633 5633 5633 5634 5637 5638 5639 5642 5642 5642 5642 5643 5645 5648 5648 5649 5648 5647 5648 5651 5651
5595 5594 5594 5591 5589 5588 5589 5590 5592 5593 5598 5603 5605 5607 5608 5610 5611 5614 5615 5615 5617 5618 5621 5622 5623 5624 5626 5626 5627 5628 5628 5629 5629 5630 5633 5635 5637 5638 5640 5640 5641 5641 5643 5646
5596 5595 5596 5596 5595 5594 5594 5593 5593 5594 5595 5597 5599 5601 5602 5604 5606 5607 5607 5608 5605 5609 5609 5611 5613 5614 5615 5615 5617 5619 5619 5618 5619 5620 5621 5623 5624 5626 5629 5632 5634 5633 5633 5634
5601 5599 5596 5593 5593 5592 5592 5592 5593 5594 5594 5595 5595 5595 5597 5596 5597 5597 5596 5595 5598 5598 5600 5604 5604 5604 5606 5605 5606 5606 5607 5608 5609 5610 5611 5613 5613 5614 5615 5618 5621 5623 5623 5623
5601 5599 5598 5596 5595 5593 5592 5592 5593 5593 5593 5593 5593 5592 5590 5588 5588 5589 5590 5592 5593 5593 5594 5594 5594 5596 5598 5598 5597 5596 5597 5598 5599 5599 5599 5600 5602 5605 5605 5606 5607 5609 5610 5610
5595 5594 5593 5592 5591 5591 5590 5590 5589 5587 5585 5584 5585 5586 5586 5587 5587 5587 5588 5587 5587 5587 5587 5587 5588 5589 5588 5588 5589 5589 5589 5589 5589 5589 5590 5589 5588 5589 5590 5591 5593 5594 5596 5597
Wind_Speed
65 64 63 61 60 58 56 51 52 36 35 30 22 25 21 25 37 44 43 43 43 40 37 35 33 31 31 27 27 28 23 22 19 18 19 16 12 12 13 14 16 18 21 26
70 68 66 65 63 62 59 54 52 40 40 33 27 28 26 27 36 44 49 46 47 45 43 41 37 32 31 32 32 27 26 23 23 22 23 20 18 16 18 16 16 19 18 21
74 72 70 70 64 61 58 56 53 46 40 35 33 30 29 29 29 34 42 46 49 49 46 46 45 38 36 29 30 27 25 26 28 26 24 24 24 23 24 21 25 21 21 21
78 75 76 69 68 67 65 61 58 51 44 39 36 34 35 36 34 35 33 35 35 39 46 43 41 39 35 36 32 26 28 32 34 30 29 27 29 29 28 27 25 28 23 22
83 81 78 75 71 70 67 63 61 56 50 46 41 38 39 38 39 40 39 35 34 33 33 41 40 35 39 38 35 36 32 30 29 31 34 33 30 30 31 29 28 28 28 24
89 85 84 75 72 72 69 66 61 58 54 47 45 44 34 40 42 43 41 40 39 36 33 33 34 34 34 38 41 33 31 25 29 32 35 38 36 35 36 38 32 32 30 32
92 91 90 84 78 75 72 68 63 62 59 52 49 45 40 40 43 43 43 44 40 36 33 34 34 35 35 37 35 32 35 33 30 32 34 36 45 49 45 45 43 38 37 34
99 97 94 86 82 80 75 70 66 64 58 57 53 49 46 45 42 44 44 43 43 37 36 35 35 36 37 38 40 42 41 37 37 38 40 40 41 55 48 38 49 52 38 45
99 102 96 92 87 81 78 73 69 64 58 57 54 48 50 47 47 42 39 44 44 41 39 38 36 36 37 40 44 45 44 42 43 43 42 46 42 47 51 54 52 59 37 38
87 100 97 97 91 90 84 78 73 69 65 62 49 50 53 48 45 44 44 38 37 40 41 40 40 40 41 42 44 43 43 42 43 45 48 50 49 49 51 59 60 69 71 47
69 85 92 97 95 94 88 83 77 73 67 59 57 59 56 48 46 44 47 45 39 40 42 43 43 42 39 39 40 46 50 49 48 49 51 53 54 56 59 57 64 63 51 57
42 53 73 75 85 94 90 82 75 77 66 58 50 42 42 50 50 48 48 45 48 45 37 39 41 41 42 41 42 40 40 44 48 54 60 66 67 66 64 66 65 64 61 64
25 42 58 60 70 81 86 80 76 75 61 57 51 41 37 36 38 41 40 41 41 38 36 33 31 36 46 46 44 46 49 50 54 56 53 59 58 59 62 65 72 74 72 74
25 42 50 52 59 62 56 61 70 67 62 41 40 42 38 39 39 38 38 38 40 42 40 34 31 34 38 42 45 48 51 53 57 58 60 60 62 65 67 63 67 72 68 69
23 42 54 47 43 43 42 48 47 52 48 41 40 44 44 45 43 42 42 43 45 46 45 45 48 47 47 45 47 49 50 50 53 61 66 69 70 66 67 68 70 69 68 68
32 38 40 40 35 45 46 49 53 53 48 50 50 46 48 49 43 44 54 52 50 49 45 43 43 44 44 47 47 48 49 51 55 56 54 55 58 59 60 70 79 81 86 78
27 28 35 24 33 56 60 54 57 53 47 47 49 49 49 48 53 52 58 57 57 50 40 44 41 42 40 39 46 45 48 47 46 47 48 46 48 54 60 56 43 40 51 69
22 31 31 19 24 46 54 54 51 45 46 46 56 63 58 44 61 41 27 54 52 46 40 45 39 40 42 41 40 43 44 41 42 45 41 41 44 45 37 48 51 22 25 32
25 15 17 28 18 27 34 35 41 44 52 58 58 59 48 43 42 29 33 35 41 43 43 43 40 39 38 37 38 40 40 39 42 39 33 38 29 24 21 25 14 12 11 8
8 5 15 16 16 14 16 17 11 17 22 23 24 24 29 29 28 32 36 41 40 40 40 35 36 35 36 35 37 43 46 42 42 37 29 27 19 11 10 11 9 7 8 9
24 24 18 12 13 16 16 12 9 18 21 19 20 17 22 27 33 37 38 40 39 41 40 38 38 34 35 38 41 41 46 39 38 35 27 25 23 17 15 15 17 18 17 16
24 22 27 22 23 21 18 23 16 14 17 20 24 27 29 33 38 40 41 42 40 41 40 37 36 36 35 36 37 37 39 37 35 34 31 30 30 25 22 22 24 28 20 20
16 16 16 21 17 15 15 15 19 21 22 23 24 24 25 28 30 31 32 33 36 34 30 31 35 36 37 35 36 39 41 37 37 37 37 36 33 30 30 28 28 20 21 23
11 7 5 8 12 9 7 12 16 20 20 15 13 19 20 24 28 29 29 30 24 23 21 24 29 34 36 35 37 39 36 35 35 37 39 39 38 39 35 35 34 39 36 33
7 9 11 13 13 13 12 10 7 3 3 5 9 13 16 18 22 23 18 15 15 16 21 20 21 24 28 25 29 33 33 33 34 35 35 34 34 38 37 36 39 41 44 44
5 5 5 5 7 8 10 10 9 11 11 12 14 14 13 12 12 13 16 19 21 20 20 22 23 25 25 25 26 27 29 32 31 33 33 32 33 34 32 32 34 32 38 38
12 12 10 10 11 13 13 14 15 16 16 17 18 18 18 18 19 20 21 23 24 25 25 25 25 27 29 29 30 31 32 34 35 36 36 37 36 36 37 38 37 37 40 43
Wind_Direction
227 228 230 232 234 239 241 242 243 241 243 235 218 229 199 204 208 210 210 209 212 216 218 222 228 230 233 235 252 240 240 247 242 241 247 254 259 277 284 292 284 274 263 249
228 229 229 230 232 236 240 240 240 236 238 239 224 220 222 212 211 216 217 213 216 219 221 224 226 229 241 246 256 256 255 261 247 239 247 249 247 267 280 294 302 281 273 263
226 228 229 228 229 234 239 243 244 237 239 239 236 224 220 228 222 220 224 225 224 226 228 226 230 238 238 250 250 255 258 267 265 240 241 250 252 256 270 279 286 293 277 266
228 227 228 228 228 230 233 237 240 235 233 234 235 228 225 222 228 231 226 228 234 240 244 242 238 233 235 242 246 253 258 257 252 247 242 243 254 257 260 270 280 283 276 272
228 229 231 227 228 231 232 233 237 238 234 234 236 232 224 226 229 232 236 234 233 235 238 237 245 241 231 234 246 250 251 262 267 255 238 243 248 258 262 263 267 270 272 270
227 229 231 229 231 232 234 234 236 240 239 236 236 233 222 229 231 233 234 235 236 237 239 243 244 241 240 243 247 245 250 260 255 241 239 242 247 256 261 264 263 263 263 266
226 229 231 230 229 232 232 232 233 237 240 236 235 237 238 233 234 237 240 240 238 240 239 242 247 249 249 252 253 254 251 243 236 244 240 243 248 243 242 257 251 254 260 261
226 227 230 230 231 231 235 234 235 235 237 241 241 240 245 240 239 238 240 245 247 243 240 241 244 246 250 252 255 259 263 257 254 253 248 249 254 252 270 245 255 253 259 250
225 226 227 230 231 232 234 235 236 239 239 238 244 243 242 244 245 247 241 241 248 248 248 248 246 244 248 253 254 255 257 260 264 254 254 252 262 255 261 259 266 242 257 257
232 227 228 228 230 232 232 234 235 237 239 238 237 243 242 246 246 246 252 245 241 243 245 247 248 250 249 250 251 255 257 259 256 257 259 260 258 262 262 260 265 268 278 256
239 233 231 230 231 231 233 235 237 239 240 243 245 244 244 245 246 248 250 255 253 243 246 248 252 255 258 258 254 254 256 258 258 260 262 264 266 269 271 270 264 276 275 267
242 233 234 231 232 233 234 234 238 240 242 246 249 248 244 249 245 248 247 251 253 259 251 246 251 255 257 257 255 254 260 261 260 260 261 262 263 263 262 266 269 270 269 273
225 210 223 226 229 230 233 233 234 237 240 245 242 235 224 219 239 244 243 245 248 248 255 261 256 254 253 259 262 264 266 268 267 267 272 270 264 264 266 266 262 263 264 267
229 207 193 207 222 227 229 230 233 233 231 225 222 220 219 216 215 221 229 237 246 249 247 245 242 242 251 256 260 265 268 268 268 273 272 271 266 268 273 271 265 261 261 259
207 189 167 170 185 195 203 217 206 218 207 208 214 214 210 219 212 217 225 237 245 250 252 255 254 253 258 260 263 266 268 269 270 270 269 269 268 271 272 273 271 265 259 257
160 158 153 151 158 174 186 193 201 206 207 214 213 213 208 207 206 227 232 234 239 247 256 261 262 259 260 263 263 266 263 265 269 270 270 271 269 273 274 277 272 268 260 252
127 141 159 158 167 180 186 187 197 195 198 209 214 221 243 242 250 244 237 231 240 249 257 259 262 262 266 269 267 256 261 264 262 268 275 280 284 276 290 266 250 234 213 237
116 136 153 150 154 184 190 197 199 200 203 217 232 235 239 244 240 232 222 228 241 247 242 252 253 266 271 269 264 263 258 249 264 270 278 289 286 299 291 272 269 273 267 255
107 81 149 173 194 191 193 190 198 207 215 224 231 233 225 232 229 233 233 241 248 245 244 248 256 264 271 264 258 260 255 257 265 266 276 280 283 290 280 298 289 274 262 257
136 148 154 169 143 175 134 127 149 177 192 187 200 214 228 238 242 243 239 235 237 239 242 248 258 265 263 258 253 255 258 257 257 259 257 255 257 265 275 270 261 222 223 226
129 133 129 162 161 161 178 180 211 217 208 220 239 225 230 233 237 241 241 245 248 247 255 249 251 252 254 250 255 257 257 253 257 256 251 254 254 243 248 268 266 257 235 275
114 127 120 123 154 163 173 174 191 222 221 220 227 230 238 247 251 249 249 254 255 252 247 249 251 243 243 252 258 261 263 260 252 249 249 251 246 246 248 268 259 251 252 272
129 119 125 145 148 176 191 184 187 195 217 223 221 223 227 233 238 241 243 242 240 237 244 249 249 248 251 258 262 262 263 268 259 258 257 254 253 252 252 266 256 244 255 252
55 56 80 122 179 198 202 203 213 212 206 205 211 222 223 230 236 237 236 239 241 246 250 257 258 259 262 262 261 260 260 263 261 261 263 264 260 260 253 253 256 240 246 240
22 10 2 3 1 2 9 13 12 8 319 270 242 234 238 237 240 239 239 244 256 253 248 250 255 258 259 257 255 258 259 259 261 259 259 259 260 260 258 255 251 247 248 251
326 326 322 320 318 320 316 312 308 304 301 306 305 307 308 302 291 274 264 259 255 256 260 261 259 259 261 261 261 262 264 265 263 261 260 258 255 252 256 257 256 249 237 229
304 301 294 287 286 286 285 286 289 294 299 300 297 292 287 283 282 283 283 284 284 283 281 274 269 267 266 266 265 262 259 260 261 262 262 262 262 263 261 259 261 260 257 255